Home > Weather > Sion > Past weeks

Flag for Switzerland Past Weather in Sion, Valais, Switzerland — Yesterday and Last 2 Weeks

Now
65 °F

Mild.


Feels Like: 65 °F
Forecast: 64 / 78 °F
Wind: 8 mph from West

Location: Sion

Current Time: Jul 31, 2016 at 3:44:37 AM

Latest Report: Jul 31, 2016 at 3:00 AM


Visibility: N/A

Pressure: 30.12 "Hg (28.36 "Hg at 514m altitude)

Humidity: 89%

Dew Point: 62 °F

Location of SionLocation

Past Weather in Sion — Graph

°F

Sion Temperature Yesterday

Maximum temperature yesterday: 86 °F (at 1:00 PM)
Minimum temperature yesterday: 62 °F (at 5:00 AM)
Average temperature yesterday: 73 °F

High & Low Weather Summary for the Past Weeks

 TemperatureHumidityPressure
High94 °F (Jul 20, 5:00 PM)95% (Jul 23, 12:00 AM)30.33 "Hg (Jul 23, 12:00 AM)
Low49 °F (Jul 16, 6:00 AM)25% (Jul 20, 6:00 PM)29.83 "Hg (Jul 21, 6:00 PM)
Average72 °F61%30.03 "Hg
* Reported Jul 16 2:00 AM — Jul 31 2:00 AM, Sion, Weather by CustomWeather, © 2016

Note: Actual official high and low records may vary slightly from our data, if they occured in-between our weather recording intervals... More about our weather records

Advertising

Sion Weather History for the Previous 24 Hours

Scroll right to see more
 ConditionsComfort  
Time TempWeatherWind HumidityBarometerVisibility
2:00 AM
Sun, Jul 31
69 °FOvercast.7 mph67%30.03 "Hg12 mi
1:00 AM68 °FMild.5 mph62%29.96 "HgN/A
12:00 AM66 °FMild.1 mph72%29.97 "HgN/A
11:00 PM
Sat, Jul 30
70 °FPassing clouds.1 mph61%29.96 "Hg16 mi
10:00 PM71 °FMild.1 mph64%29.95 "HgN/A
9:00 PM71 °FMild.2 mph67%29.95 "HgN/A
8:00 PM77 °FPartly sunny.2 mph49%29.93 "Hg19 mi
7:00 PM80 °FWarm.8 mph43%29.93 "HgN/A
6:00 PM80 °FWarm.3 mph44%29.94 "HgN/A
5:00 PM80 °FPleasantly warm.7 mph40%29.95 "HgN/A
4:00 PM81 °FWarm.16 mph43%29.93 "HgN/A
3:00 PM81 °FWarm.10 mph42%29.92 "HgN/A
2:00 PM85 °FPartly sunny.18 mph40%29.88 "Hg16 mi
1:00 PM86 °FPleasantly warm.5 mph35%29.87 "HgN/A
12:00 PM80 °FWarm.2 mph42%29.91 "HgN/A
11:00 AM77 °FPartly sunny.3 mph47%29.94 "Hg19 mi
10:00 AM74 °FMild.3 mph52%29.98 "HgN/A
9:00 AM71 °FMild.5 mph60%30.00 "HgN/A
8:00 AM66 °FScattered clouds.3 mph69%30.03 "Hg19 mi
7:00 AM63 °FMild.3 mph75%30.03 "HgN/A
6:00 AM62 °FCool.No wind77%30.03 "HgN/A
5:00 AM62 °FClear.2 mph79%30.02 "Hg16 mi
4:00 AM64 °FMild.1 mph78%30.02 "HgN/A
3:00 AM65 °FMild.1 mph73%30.01 "HgN/A
Weather by CustomWeather, © 2016

See weather overviewHow to use our weather pages